Preview of NWS' New Version of Forecast
This preview is not operational and should not be used for support decisions.

Regional Weather Roundup (RWR)

Issued by National Weather Service (NWS)

                            
000
ASUS43 KDMX 241606
RWRIA 

WEATHER ROUNDUP FOR IOWA
NATIONAL WEATHER SERVICE DES MOINES IA
1100 AM CDT MON JUN 24 2019

NOTE: "FAIR" INDICATES FEW OR NO CLOUDS BELOW 12,000 FEET WITH NO
SIGNIFICANT WEATHER AND/OR OBSTRUCTIONS TO VISIBILITY.

* - THESE STATIONS ARE NOT NWS STATIONS...THUS NOT UNDER NWS
QUALITY CONTROL.  THEY ALSO DO NOT REPORT WEATHER SUCH 
AS PRECIPITATION OR FOG.  

IAZ001>003-012>014-020>022-031>034-043>046-241700-
   NORTHWEST IOWA
  
CITY           SKY/WX    TMP DP  RH WIND       PRES   REMARKS
CARROLL *      CLOUDY    68  59  73 W12       29.75R                  
CHEROKEE *     CLOUDY    64  59  86 SW6       29.75S                  
DENISON *      SUNNY     68  61  77 SW8       29.78R                  
LE MARS *      SUNNY     66  61  82 VRB3      29.74S                  
SHELDON *      MOSUNNY   66  64  94 SW8       29.71S                  
SIOUX CITY     SUNNY     69  60  73 SW6       29.75S                  
SPENCER        CLOUDY    66  58  75 SW10      29.73R                  
STORM LAKE *   SUNNY     63  59  88 W9        29.73R                  
$$
 
IAZ055>058-069>071-079>083-090>094-241700-
   SOUTHWEST IOWA
  
CITY           SKY/WX    TMP DP  RH WIND       PRES   REMARKS
ATLANTIC *     SUNNY     70  57  64 NW7G14    29.77S                  
AUDUBON *      MOSUNNY   66  61  82 CALM      29.78R                  
CLARINDA *     SUNNY     72  57  60 W10       29.81S                  
COUNCIL BLFS * SUNNY     72  57  60 W10       29.77S                  
CRESTON *      MOSUNNY   68  57  68 NW15G21   29.78S                  
HARLAN  *      MOSUNNY   70  59  68 W9        29.77S                  
LAMONI         PTSUNNY   68  59  73 W14       29.78R                  
RED OAK *      SUNNY     72  57  60 VRB3      29.79S                  
SHENANDOAH *   SUNNY     70  59  68 CALM      29.79S                  
$$
 
IAZ047>049-059>061-072>074-084-241700-
   CENTRAL IOWA
  
CITY           SKY/WX    TMP DP  RH WIND       PRES   REMARKS
AMES           CLOUDY    63  59  87 NW13      29.72S                  
ANKENY *       CLOUDY    64  59  82 W15       29.74R                  
BOONE *        CLOUDY    63  63 100 W12       29.73R                  
CHARITON *     CLOUDY    66  63  88 W15       29.74R                  
DES MOINES     PTSUNNY   67  58  72 NW16      29.73R                  
GRINNELL*      CLOUDY    66  60  81 W10       29.71S                  
KNOXVILLE *    PTSUNNY   68  61  77 NW15G23   29.72R                  
MARSHALLTOWN   CLOUDY    66  61  84 W15G23    29.69R                  
NEWTON *       CLOUDY    66  63  88 NW10G16   29.71R                  
PELLA *        PTSUNNY   68  61  77 NW10      29.72S                  
$$
 
IAZ004>006-015-016-023>025-035-036-241700-
   NORTH CENTRAL IOWA
  
CITY           SKY/WX    TMP DP  RH WIND       PRES   REMARKS
ALGONA *       SUNNY     68  59  73 W10       29.70S                  
CLARION *      SUNNY     63  59  88 W10       29.72R                  
ESTHERVILLE    CLOUDY    64  56  75 W9        29.70R                  
FORT DODGE *   PTSUNNY   68  60  75 NW7       29.73S                  
MASON CITY     PTSUNNY   69  57  65 NW17      29.69R                  
FOREST CITY *  FAIR      66  57  72 NW9G17    29.69R                  
IOWA FALLS *   CLOUDY    66  60  81 W15       29.72R                  
$$

IAZ007>011-017>019-026>030-037>042-050>054-066-241700-
   NORTHEAST IOWA
  
CITY           SKY/WX    TMP DP  RH WIND       PRES   REMARKS
CEDAR RAPIDS   CLOUDY    66  63  90 W14       29.66R                  
CHARLES CITY * CLOUDY    66  61  82 NW13      29.66R                  
CLINTON *      CLOUDY    72  68  87 SW14      29.65R                  
DECORAH *        N/A     66  61  82 N8        29.62R                  
DUBUQUE        FAIR      71  66  84 SW10      29.62S                  
MONTICELLO *   PTSUNNY   73  70  88 SW13G20   29.62S                  
OELWEIN *      CLOUDY    68  64  88 NW10      29.65R                  
WATERLOO       CLOUDY    69  60  73 NW8G18    29.65R                  
$$
 
IAZ064-065-067-068-078-241700-
   EAST CENTRAL IOWA
  
CITY           SKY/WX    TMP DP  RH WIND       PRES   REMARKS
DAVENPORT      PTSUNNY   75  65  70 W10       29.67S                  
IOWA CITY      CLOUDY    70  62  76 W10       29.68R                  
MT. PLEASANT * PTSUNNY   73  64  73 W14G24    29.70R                  
MUSCATINE *    FAIR      75  64  69 W16       29.66S                  
QUAD CITIES    FAIR      76  66  71 SW9       29.65S                  
$$
 
IAZ062-063-075>077-085>089-095>099-241700-
   SOUTHEAST IOWA
  
CITY           SKY/WX    TMP DP  RH WIND       PRES   REMARKS
BURLINGTON     PTSUNNY   75  64  68 W12       29.69R                  
FAIRFIELD *    CLOUDY    68  61  77 W13G18    29.71R                  
FORT MADISON * MOSUNNY   73  64  73 W8G16     29.70S                  
KEOKUK *       MOSUNNY   73  64  73 W13       29.70S                  
OSKALOOSA *    CLOUDY    65  60  82 W13       29.71S                  
CENTERVILLE *  PTSUNNY   66  63  88 W12       29.76R                  
OTTUMWA        CLOUDY    67  60  78 W10       29.71R                  
WASHINGTON *     N/A     68  68 100 W12       29.68R                  
$$

ABBREVIATIONS USED IN REMARKS
   TC - TEMPERATURES IN CELSIUS
  WCI - WIND CHILL INDEX
   HX - HEAT INDEX
  VSB - VISIBILITY  
$$